Location: *
(60.1759°S, 155.0663°W)
Time: 14:49:14
(UTC+00:00)

Cosmos 1825 - Pass Details

Date: 17 September 2019
Orbit: 503 x 510 km, 82.5° (Epoch: 20 October)

Event Time Altitude Azimuth Distance (km) Brightness Sun altitude
Exits shadow 12:19:07 37° 159° (SSE) 822 3.6 -27.4°
Drops below altitude 10° 12:21:34 10° 164° (SSE) 1,766 5.8 -27.2°
Sets 12:23:43 0° 165° (SSE) 2,661 6.9 -27.0°
